Regional Weather Roundup
Issued by NWS Sioux Falls, SD

Home | Current Version | Previous Version | Text Only | Print | Product List | Glossary Off
Versions: 1 2 3 4 5 6 7 8 9 10 11 12 13 14 15 16 17 18 19 20 21 22 23 24 25 26 27 28 29 30 31 32 33 34 35 36 37 38 39 40 41 42 43 44 45 46 47 48 49 50

000
ASUS43 KFSD 201302
RWRFSD

WEATHER ROUNDUP FOR SE SOUTH DAKOTA/SW MINNESOTA/NW IOWA
NATIONAL WEATHER SERVICE SIOUX FALLS SD
800 AM CDT THU JUL 20 2017

NOTE: "FAIR" INDICATES FEW OR NO CLOUDS BELOW 12,000 FEET WITH NO
SIGNIFICANT WEATHER AND OR OBSTRUCTIONS TO VISIBILITY.


SDZ038>040-050-052>070-201400-
SOUTHEAST SOUTH DAKOTA

CITY           SKY/WX    TMP DP  RH WIND       PRES   REMARKS
CHAMBERLAIN    PTSUNNY   74  73  93 E7        30.00F
HURON          CLOUDY    72  70  93 CALM      30.02R
MADISON        FAIR      68  68 100 NE8       30.02F
MITCHELL       CLOUDY    74  71  91 N6        30.00S
SIOUX FALLS    CLOUDY    72  70  93 NE6       30.00S
WINNER         FAIR      74  71  91 E7        30.02R
YANKTON        CLOUDY    74  69  85 NE7       29.98F
$$

MNZ071-072-080-081-089-090-097-098-201400-
SOUTHWEST MINNESOTA

CITY           SKY/WX    TMP DP  RH WIND       PRES   REMARKS
FAIRMONT       PTSUNNY   70  68  93 N7        30.01R
JACKSON        CLOUDY    70  68  94 CALM      30.02R
MARSHALL       PTSUNNY   69  69 100 N5        30.01F FOG
MONTEVIDEO     PTSUNNY   66  66 100 CALM      30.01R FOG
PIPESTONE      PTSUNNY   72  66  83 CALM      30.03R
REDWOOD FALLS  CLOUDY    69  67  93 CALM      30.01R FOG
TRACY          CLOUDY    70  70 100 N5        30.01S FOG
WINDOM         MOSUNNY   70  68  94 N6        30.01S
WORTHINGTON    MOSUNNY   71  67  87 N5        30.04R
$$

IAZ001>003-012>014-020>022-031-032-NEZ013-014-SDZ071-201400-
NORTHWEST IOWA

CITY           SKY/WX    TMP DP  RH WIND       PRES   REMARKS
CHEROKEE       PTSUNNY   76  71  85 NE7       29.98R
DENISON        MOSUNNY   81  73  78 MISG      29.98S
ESTHERVILLE    CLOUDY    70  69  97 NE6       30.00R
ORANGE CITY    CLOUDY    75  70  83 NE7       29.99S
SHELDON        PTSUNNY   72  68  88 NE6       29.99S
SIOUX CITY     CLOUDY    81  77  88 NW6       29.95S
SPENCER        CLOUDY    73  69  87 NE6       30.00R
STORM LAKE     SUNNY     77  72  83 NE13      29.99R
$$

ABBREVIATIONS USED IN REMARKS
   TC - TEMPERATURE IN CELSIUS
  WCI - WIND CHILL INDEX
   HX - HEAT INDEX
  VSB - VISIBILITY





USA.gov is the U.S. government's official web portal to all federal, state and local government web resources and services.